Location: Newark
(25.4800°N, 85.7200°E)
Time: 04:48:08
(UTC+00:00)

Altair - All Passes

Search period start: 21 August 2019 00:00
Search period end: 31 August 2019 00:00
Orbit: 1501 x 1683 km, 47.2° (Epoch: 19 August)

Date Brightness Start Highest point End Pass type
(mag) Time Alt. Az. Time Alt. Az. Time Alt. Az.
21 Aug - 01:59:51 10° NNW 02:06:47 22° NNE 02:13:35 10° ENE daylight
21 Aug - 04:04:13 10° NW 04:13:17 57° NE 04:22:15 10° ESE daylight
21 Aug - 06:09:26 10° WNW 06:17:38 38° SW 06:25:54 10° SSE daylight
21 Aug - 19:11:46 10° SSW 19:21:20 50° SE 19:30:36 10° ENE visible
21 Aug - 21:16:37 10° WSW 21:26:08 49° NW 21:35:22 10° NE visible
21 Aug - 23:26:13 10° WNW 23:33:05 21° NNW 23:39:48 10° NNE visible
22 Aug - 01:34:36 10° NNW 01:41:23 21° NNE 01:48:02 10° ENE daylight
22 Aug - 03:39:05 10° NW 03:48:05 53° NE 03:56:57 10° ESE daylight
22 Aug - 05:44:06 10° WNW 05:52:33 42° SW 06:01:01 10° SSE daylight
22 Aug - 18:46:47 10° SSW 18:56:11 46° SE 19:05:19 10° ENE visible
22 Aug - 20:51:12 10° WSW 21:00:53 54° NW 21:10:15 10° NE visible
22 Aug - 23:00:35 10° WNW 23:07:40 22° NNW 23:14:35 10° NNE visible
23 Aug - 01:09:19 10° NNW 01:15:58 21° NNE 01:22:30 10° ENE daylight
23 Aug - 03:13:56 10° NW 03:22:52 48° NE 03:31:37 10° ESE daylight
23 Aug - 05:18:48 10° WNW 05:27:28 47° SW 05:36:07 10° SSE daylight
23 Aug - 18:21:51 10° SSW 18:31:02 41° SE 18:40:00 10° ENE visible
23 Aug - 20:25:49 10° WSW 20:35:38 58° NW 20:45:08 10° NE visible
23 Aug - 22:34:57 10° WNW 22:42:15 23° NNW 22:49:24 10° NNE visible
24 Aug - 00:44:00 10° NW 00:50:34 20° N 00:56:58 10° NE daylight
24 Aug - 02:48:48 10° NW 02:57:38 45° NE 03:06:16 10° ESE daylight
24 Aug - 04:53:32 10° WNW 05:02:21 53° SW 05:11:10 10° SSE daylight
24 Aug - 17:56:57 10° S 18:05:54 37° SE 18:14:37 10° ENE visible
24 Aug - 20:00:28 10° WSW 20:10:24 63° NW 20:20:01 10° NE visible
24 Aug - 22:09:18 10° WNW 22:16:52 24° NNW 22:24:14 10° NNE visible
25 Aug - 00:18:40 10° NW 00:25:08 20° N 00:31:27 10° NE daylight
25 Aug - 02:23:40 10° NW 02:32:23 41° NNE 02:40:53 10° E daylight
25 Aug - 04:28:16 10° NW 04:37:15 59° SW 04:46:11 10° SSE daylight
25 Aug - 17:32:06 10° S 17:40:46 33° SE 17:49:13 10° ENE visible
25 Aug - 19:35:09 10° WSW 19:45:09 69° NW 19:54:52 10° NE visible
25 Aug - 21:43:40 10° WNW 21:51:28 26° NNW 21:59:04 10° NNE visible
25 Aug - 23:53:18 10° NW 23:59:42 19° N 00:05:57 10° NE daylight
26 Aug - 01:58:31 10° NW 02:07:07 38° NNE 02:15:29 10° E daylight
26 Aug - 04:03:01 10° NW 04:12:08 65° SW 04:21:09 10° SSE daylight
26 Aug - 06:13:35 10° WSW 06:15:46 11° WSW 06:17:57 10° SW daylight
26 Aug - 17:07:19 10° S 17:15:37 30° SE 17:23:46 10° ENE visible
26 Aug - 19:09:51 10° SW 19:19:56 74° NW 19:29:44 10° NE visible
26 Aug - 21:18:03 10° WNW 21:26:05 27° NNW 21:33:55 10° NNE visible
26 Aug - 23:27:53 10° NW 23:34:15 19° N 23:40:28 10° NE visible
27 Aug - 01:33:22 10° NW 01:41:50 36° NNE 01:50:04 10° E daylight
27 Aug - 03:37:48 10° NW 03:47:01 72° SW 03:56:06 10° SE daylight
27 Aug - 05:46:51 10° W 05:50:41 13° WSW 05:54:32 10° SSW daylight
27 Aug - 16:42:36 10° S 16:50:30 26° SE 16:58:15 10° ENE night (unlit)
27 Aug - 18:44:35 10° SW 18:54:43 81° NW 19:04:35 10° NE visible
27 Aug - 20:52:26 10° W 21:00:42 29° NNW 21:08:46 10° NNE visible
27 Aug - 23:02:27 10° NW 23:08:48 19° N 23:15:01 10° NE visible
28 Aug - 01:08:13 10° NW 01:16:33 33° NNE 01:24:37 10° E daylight
28 Aug - 03:12:35 10° NW 03:21:54 79° SW 03:31:02 10° SE daylight
28 Aug - 05:20:43 10° W 05:25:37 16° SW 05:30:31 10° SSW daylight
28 Aug - 16:17:56 10° S 16:25:22 23° SE 16:32:40 10° ENE night (unlit)
28 Aug - 18:19:20 10° SW 18:29:31 87° NW 18:39:25 10° NE visible
28 Aug - 20:26:51 10° W 20:35:21 31° NNW 20:43:38 10° NNE visible
28 Aug - 22:36:58 10° NW 22:43:21 19° N 22:49:35 10° NE visible
29 Aug - 00:43:03 10° NNW 00:51:13 31° NNE 00:59:10 10° E daylight
29 Aug - 02:47:23 10° NW 02:56:45 86° SW 03:05:56 10° SE daylight
29 Aug - 04:54:51 10° W 05:00:32 18° SW 05:06:14 10° SSW daylight
29 Aug - 15:53:24 10° SSE 16:00:14 21° SE 16:07:00 10° E night (unlit)
29 Aug - 17:54:08 10° SW 18:04:19 86° SE 18:14:14 10° NE visible
29 Aug - 20:01:17 10° W 20:10:00 33° NNW 20:18:30 10° NE visible
29 Aug - 22:11:27 10° NW 22:17:53 19° N 22:24:11 10° NE visible
30 Aug - 00:17:52 10° NNW 00:25:54 29° NNE 00:33:41 10° E daylight
30 Aug - 02:22:12 10° NW 02:31:36 87° NE 02:40:48 10° SE daylight
30 Aug - 04:29:07 10° W 04:35:28 21° SW 04:41:47 10° S daylight
30 Aug - 15:28:58 10° SSE 15:35:07 18° SE 15:41:12 10° E night (unlit)
30 Aug - 17:28:57 10° SW 17:39:07 80° SE 17:49:02 10° NE visible
30 Aug - 19:35:44 10° W 19:44:39 35° NNW 19:53:22 10° NE visible
30 Aug - 21:45:55 10° NW 21:52:26 19° N 21:58:49 10° NE visible
